Time+07,TemperatureF,Dew PointF,Humidity,Sea Level PressureIn,VisibilityMPH,Wind Direction,Wind SpeedMPH,Gust SpeedMPH,PrecipitationIn,Events,Conditions,WindDirDegrees,DateUTC
12:00 AM,80.6,77.0,89,29.74,6.2,SW,3.5,-,N/A,,Mostly Cloudy,220,2013-08-15 17:00:00
1:00 AM,80.6,77.0,89,29.74,6.2,SW,5.8,-,N/A,,Mostly Cloudy,220,2013-08-15 18:00:00
6:00 AM,77.0,77.0,100,29.71,6.2,SSW,8.1,-,N/A,,Mostly Cloudy,210,2013-08-15 23:00:00
7:00 AM,78,74,84,29.72,6,SSW,4.6,,,,Scattered Clouds,210,2013-08-16 00:00:00
7:00 AM,77.0,77.0,100,29.74,6.2,SSW,6.9,-,N/A,,Mostly Cloudy,210,2013-08-16 00:00:00
8:00 AM,80.6,77.0,89,29.74,6.2,SSW,6.9,-,N/A,,Mostly Cloudy,210,2013-08-16 01:00:00
9:00 AM,82.4,77.0,84,29.74,6.2,WSW,10.4,-,N/A,,Mostly Cloudy,240,2013-08-16 02:00:00
10:00 AM,86.0,77.0,74,29.74,6.2,SW,10.4,-,N/A,,Mostly Cloudy,230,2013-08-16 03:00:00
11:00 AM,89.6,78.8,70,29.74,6.2,WSW,9.2,-,N/A,,Mostly Cloudy,250,2013-08-16 04:00:00
12:00 PM,89.6,75.2,62,29.71,6.2,West,12.7,-,N/A,,Mostly Cloudy,260,2013-08-16 05:00:00
1:00 PM,92,72,42,29.68,7,West,11.5,,,,Partly Cloudy,260,2013-08-16 06:00:00
1:00 PM,89.6,75.2,62,29.71,6.2,West,11.5,-,N/A,,Mostly Cloudy,260,2013-08-16 06:00:00
2:00 PM,87.8,77.0,70,29.68,6.2,SW,9.2,-,N/A,,Mostly Cloudy,230,2013-08-16 07:00:00
3:00 PM,89.6,77.0,66,29.65,6.2,SW,11.5,-,N/A,,Mostly Cloudy,230,2013-08-16 08:00:00
4:00 PM,91.4,77.0,63,29.62,6.2,WSW,8.1,-,N/A,,Mostly Cloudy,250,2013-08-16 09:00:00
5:00 PM,89.6,77.0,66,29.62,6.2,WSW,11.5,-,N/A,,Mostly Cloudy,240,2013-08-16 10:00:00
6:00 PM,87.8,75.2,66,29.65,6.2,WSW,9.2,-,N/A,,Mostly Cloudy,240,2013-08-16 11:00:00
7:00 PM,87,72,51,29.65,6,WSW,9.2,,,,Overcast,240,2013-08-16 12:00:00
7:00 PM,86.0,75.2,70,29.68,6.2,WSW,9.2,-,N/A,,Mostly Cloudy,250,2013-08-16 12:00:00
8:00 PM,82.4,77.0,84,29.71,6.2,NW,3.5,-,N/A,,Mostly Cloudy,310,2013-08-16 13:00:00
9:00 PM,78.8,77.0,94,29.71,6.2,WSW,3.5,-,N/A,,Mostly Cloudy,240,2013-08-16 14:00:00
11:00 PM,80.6,75.2,84,29.74,6.2,SW,5.8,-,N/A,,Scattered Clouds,230,2013-08-16 16:00:00